15min,AgWx,beryljct,423,25MAY2019:00:00:00,39.0,12.92,38.2,38.0,39.0,40.1,38.0,90,91,88,0.700,36.1,37.2,35.4,0,0.9,209,1.9,2.5,-0.00018,-0.00025,51.1,51.4,11,0,.,.,15.67,0.00,0.00
15min,AgWx,beryljct,423,25MAY2019:00:15:00,38.5,12.92,34.2,35.3,36.2,38.5,35.3,93,95,89,0.658,34.2,36.0,33.3,0.395,1.1,74,12,3.4,-0.00017,-0.00023,51.0,51.3,11,0,.,.,15.67,0.00,0.00
15min,AgWx,beryljct,423,25MAY2019:00:30:00,37.7,12.89,38.2,37.4,35.6,37.4,34.4,95,97,93,0.723,34.4,36.2,32.7,0,0.3,81,1.4,1.7,-0.00020,-0.00031,50.8,51.3,11,0,.,.,15.67,0.00,0.00
15min,AgWx,beryljct,423,25MAY2019:00:45:00,37.3,12.9,33.3,33.9,35.9,37.6,33.9,94,98,91,0.621,34.3,36.9,32.4,0.833,2.1,109,25,4.1,-0.00013,-0.00017,50.7,51.3,11,0,.,.,15.67,0.00,0.00
15min,AgWx,beryljct,423,25MAY2019:01:00:00,36.7,12.89,34.2,33.6,33.5,34.0,33.2,96,97,94,0.629,32.6,33.0,32.1,2.653,2.7,183,5.4,3.9,-0.00012,-0.00015,50.5,51.3,11,0,.,.,15.67,0.00,0.00
15min,AgWx,beryljct,423,25MAY2019:01:15:00,36.1,12.88,36.0,34.6,33.6,34.6,32.9,97,98,95,0.660,32.8,33.9,31.7,2.148,2.4,211,16,3.2,-0.00013,-0.00016,50.4,51.2,11,0,.,.,15.67,0.00,0.00
15min,AgWx,beryljct,423,25MAY2019:01:30:00,35.8,12.87,35.2,34.9,35.0,35.3,34.1,96,98,94,0.644,33.8,34.7,32.5,0,0.7,194,29,2.8,-0.00018,-0.00026,50.2,51.2,11,0,.,.,15.67,0.01,0.00
15min,AgWx,beryljct,423,25MAY2019:01:45:00,35.5,12.87,35.7,35.6,35.1,35.6,34.6,95,96,94,0.663,33.7,34.4,32.9,0.855,0.2,199,7.5,1.1,-0.00020,-0.00032,50.1,51.2,11,0,.,.,15.67,0.00,0.00
15min,AgWx,beryljct,423,25MAY2019:02:00:00,35.3,12.85,32.8,32.9,34.2,35.6,32.9,94,96,93,0.601,32.7,34.1,31.5,2.477,1.7,158,68,2.6,-0.00014,-0.00019,49.9,51.2,12,0,.,.,15.67,0.00,0.00
15min,AgWx,beryljct,423,25MAY2019:02:15:00,34.8,12.85,32.0,32.0,32.4,32.8,32.0,96,97,95,0.591,31.4,31.9,31.0,0.636,0.8,43,23,2.7,-0.00017,-0.00024,49.8,51.1,11,0,.,.,15.67,0.00,0.00
15min,AgWx,beryljct,423,25MAY2019:02:30:00,34.2,12.82,32.0,31.7,31.8,32.2,31.5,97,97,96,0.586,31.0,31.5,30.5,0.789,0.8,355,0.1,1.5,-0.00017,-0.00024,49.6,51.1,12,0,.,.,15.67,0.00,0.00
15min,AgWx,beryljct,423,25MAY2019:02:45:00,33.8,12.84,32.1,31.6,31.9,32.1,31.6,97,97,97,0.579,31.2,31.5,30.7,0.833,0.5,2.4,3.4,1.4,-0.00018,-0.00026,49.5,51.1,11,0,.,.,15.67,0.00,0.00
15min,AgWx,beryljct,423,25MAY2019:03:00:00,33.4,12.81,31.5,31.2,31.5,32.3,30.9,97,98,96,0.577,30.8,31.8,30.1,2.433,1.4,356,14,2.5,-0.00015,-0.00020,49.3,51.0,11,0,.,.,15.67,0.00,0.00
15min,AgWx,beryljct,423,25MAY2019:03:15:00,33.0,12.83,31.1,30.8,31.2,31.6,30.8,98,98,97,0.568,30.7,31.1,30.2,2.302,2.2,212,72,3.0,-0.00013,-0.00016,49.2,51.0,11,0,.,.,15.67,0.00,0.00
15min,AgWx,beryljct,423,25MAY2019:03:30:00,32.8,12.82,31.6,31.3,31.0,31.4,30.8,98,98,98,0.584,30.5,31.0,30.2,2.28,2.1,193,4.3,2.8,-0.00013,-0.00016,49.0,51.0,11,0,.,.,15.67,0.00,0.00
15min,AgWx,beryljct,423,25MAY2019:03:45:00,32.6,12.82,32.5,32.4,31.5,32.4,31.1,98,99,98,0.611,31.1,32.1,30.6,2.192,1.8,193,3.8,2.8,-0.00014,-0.00018,48.9,50.9,11,0,.,.,15.67,0.00,0.00
15min,AgWx,beryljct,423,25MAY2019:04:00:00,32.4,12.81,34.1,33.6,32.5,33.6,31.7,98,99,97,0.643,32.0,33.3,30.9,1.25,0.7,186,0.0,2.0,-0.00017,-0.00025,48.7,50.9,11,0,.,.,15.67,0.00,0.00
15min,AgWx,beryljct,423,25MAY2019:04:15:00,32.4,12.8,34.7,34.1,32.9,34.1,32.2,98,99,97,0.659,32.4,33.9,31.6,1.841,1.5,186,0.1,2.2,-0.00015,-0.00020,48.6,50.8,11,0,.,.,15.67,0.00,0.00
15min,AgWx,beryljct,423,25MAY2019:04:30:00,32.5,12.8,32.1,31.8,33.0,34.7,31.3,98,99,96,0.592,32.4,34.5,30.4,2.017,1.7,186,0.1,2.3,-0.00014,-0.00019,48.4,50.8,11,0,.,.,15.67,0.00,0.00
15min,AgWx,beryljct,423,25MAY2019:04:45:00,32.6,12.78,31.0,30.7,31.2,31.9,30.5,98,98,97,0.568,30.6,31.5,29.9,1.798,1.4,186,0.1,2.2,0.00001,0.00001,48.3,50.7,11,0,.,.,15.67,0.00,0.00
15min,AgWx,beryljct,423,25MAY2019:05:00:00,32.3,12.8,31.7,31.5,31.2,31.5,30.7,98,99,98,0.586,30.7,31.2,30.2,1.008,1.2,187,0.0,1.9,0.00001,0.00001,48.1,50.7,11,0,.,.,15.67,0.00,0.00
15min,AgWx,beryljct,423,25MAY2019:05:15:00,32.1,12.79,32.0,31.7,31.6,31.8,31.4,98,98,97,0.588,31.1,31.3,30.9,0,0.4,187,0.0,1.2,0.00001,0.00002,48.0,50.6,11,2,.,.,15.67,0.00,0.00
15min,AgWx,beryljct,423,25MAY2019:05:30:00,32.0,12.8,31.1,31.1,31.9,34.2,30.8,97,99,95,0.569,31.1,34.1,29.7,1.556,0.5,212,46,2.7,0.00006,0.00006,47.9,50.5,11,11,.,.,15.67,0.00,0.00
15min,AgWx,beryljct,423,25MAY2019:05:45:00,32.2,12.8,36.7,35.4,32.3,35.4,30.9,98,99,96,0.686,31.7,35.0,30.0,1.118,0.9,313,2.1,1.7,0.00019,0.00020,47.7,50.5,11,43,.,.,15.67,0.00,0.00
15min,AgWx,beryljct,423,25MAY2019:06:00:00,33.1,12.81,35.9,35.7,35.5,36.4,34.9,95,98,93,0.666,34.1,35.5,33.1,2.214,1.1,326,18,2.4,0.00033,0.00035,47.6,50.4,11,77,.,.,15.67,0.00,0.00
15min,AgWx,beryljct,423,25MAY2019:06:15:00,34.4,12.79,33.7,33.5,34.4,36.4,33.4,95,97,91,0.631,33.1,35.0,31.8,2.346,2.7,42,26,3.7,0.00043,0.00047,47.4,50.4,11,115,.,.,15.67,0.00,0.00
15min,AgWx,beryljct,423,25MAY2019:06:30:00,35.7,12.8,36.0,35.5,34.5,35.5,33.5,98,98,97,0.688,34.0,35.0,32.8,0.877,0.8,66,3.8,2.5,0.00060,0.00064,47.3,50.3,11,159,.,.,15.67,0.00,0.00
15min,AgWx,beryljct,423,25MAY2019:06:45:00,37.5,12.81,38.8,38.0,36.5,38.0,35.5,97,98,95,0.735,35.8,36.8,35.0,0,1.0,55,7.2,2.5,0.00079,0.00085,47.2,50.3,11,202,.,.,15.67,0.00,0.00
15min,AgWx,beryljct,423,25MAY2019:07:00:00,39.8,12.83,40.0,40.1,39.3,40.3,38.1,93,95,92,0.774,37.5,38.8,36.4,0,0.1,81,6.6,0.6,0.00107,0.00114,47.1,50.2,11,248,.,.,15.66,0.00,0.00
15min,AgWx,beryljct,423,25MAY2019:07:15:00,42.2,12.86,42.9,42.4,41.2,42.4,40.1,91,93,87,0.805,38.7,39.4,37.9,2.74,1.7,337,35,3.6,0.00127,0.00138,47.0,50.1,11,298,.,.,15.67,0.00,0.00
15min,AgWx,beryljct,423,25MAY2019:07:30:00,44.3,12.9,44.6,44.4,43.7,44.4,42.5,86,90,83,0.844,39.7,40.8,38.9,4.384,3.8,340,11,5.4,0.00151,0.00168,46.9,50.1,11,344,.,.,15.67,0.00,0.00
15min,AgWx,beryljct,423,25MAY2019:07:45:00,45.8,13.04,45.9,45.4,44.7,45.6,44.0,84,86,81,0.837,40.0,40.8,39.5,4.779,4.2,346,8.0,5.9,0.00158,0.00178,46.8,50.0,11,356,.,.,15.67,0.00,0.00
15min,AgWx,beryljct,423,25MAY2019:08:00:00,47.9,13.32,47.8,47.3,46.6,47.4,45.5,79,83,76,0.857,40.4,41.4,39.8,1.995,3.5,350,14,5.5,0.00224,0.00250,46.7,50.0,11,487,.,.,15.66,0.00,0.00
15min,AgWx,beryljct,423,25MAY2019:08:15:00,50.8,13.62,48.6,48.8,48.5,49.3,47.4,75,79,73,0.851,40.9,41.7,40.1,2.28,3.2,349,17,5.1,0.00265,0.00295,46.7,49.9,11,549,.,.,15.66,0.00,0.00
15min,AgWx,beryljct,423,25MAY2019:08:30:00,52.9,14.1,49.3,50.0,49.4,50.2,48.7,73,76,72,0.892,41.2,42.0,40.3,3.464,3.2,359,17,5.6,0.00272,0.00303,46.6,49.8,11,546,.,.,15.66,0.00,0.00
15min,AgWx,beryljct,423,25MAY2019:08:45:00,54.9,14.38,52.0,51.5,50.7,51.7,49.7,71,73,69,0.908,41.8,42.9,40.8,2.148,3.3,354,24,5.0,0.00327,0.00363,46.6,49.8,11,650,.,.,15.66,0.00,0.00
15min,AgWx,beryljct,423,25MAY2019:09:00:00,57.3,14.39,53.9,53.6,52.6,53.8,51.6,69,70,66,0.951,42.6,43.9,41.5,2.105,3.3,350,28,5.3,0.00369,0.00409,46.6,49.7,11,709,.,.,15.66,0.00,0.00
15min,AgWx,beryljct,423,25MAY2019:09:15:00,58.7,14.3,53.9,54.4,53.9,54.4,53.5,65,69,62,0.932,42.4,44.3,41.1,1.732,2.0,25,36,3.6,0.00256,0.00285,46.6,49.7,11,444,.,.,15.66,0.00,0.00
15min,AgWx,beryljct,423,25MAY2019:09:30:00,60.1,14.24,60.6,58.3,55.7,58.3,54.1,63,67,60,1.027,43.4,46.4,41.7,3.157,2.0,61,48,4.3,0.00437,0.00479,46.7,49.6,11,787,.,.,15.65,0.00,0.00
15min,AgWx,beryljct,423,25MAY2019:09:45:00,63.5,14.22,61.2,60.7,60.0,61.0,58.4,53,63,45,0.916,42.9,46.1,38.6,13.53,6.6,173,37,14.5,0.00544,0.00630,46.7,49.6,11,950,.,.,15.65,0.00,0.00
15min,AgWx,beryljct,423,25MAY2019:10:00:00,64.7,14.19,61.3,60.8,60.6,61.2,59.9,47,51,43,0.837,40.1,42.6,37.6,11.53,12.1,176,12,20.1,0.00518,0.00646,46.8,49.6,11,873,.,.,15.65,0.00,0.00
15min,AgWx,beryljct,423,25MAY2019:10:15:00,64.9,14.19,60.4,59.9,60.5,61.4,59.7,47,51,44,0.837,40.1,41.8,38.5,13.7,12.5,189,15,18.6,0.00533,0.00664,47.0,49.5,11,909,.,.,15.65,0.00,0.00
15min,AgWx,beryljct,423,25MAY2019:10:30:00,64.4,14.21,59.5,60.3,60.1,61.2,58.6,47,51,41,0.733,39.9,42.1,36.6,17.38,13.1,192,12,18.0,0.00478,0.00606,47.1,49.5,11,772,.,.,15.65,0.00,0.00
15min,AgWx,beryljct,423,25MAY2019:10:45:00,64.5,13.79,61.1,60.9,61.0,62.3,59.7,44,48,39,0.737,38.7,41.5,35.7,7.717,12.2,180,16,17.8,0.00536,0.00673,47.3,49.4,11,890,.,.,15.64,0.00,0.00
15min,AgWx,beryljct,423,25MAY2019:11:00:00,64.9,13.79,61.0,61.0,61.2,61.7,60.5,43,48,40,0.798,38.5,41.4,36.1,14.49,11.9,176,19,18.1,0.00543,0.00680,47.5,49.4,11,889,.,.,15.64,0.00,0.00
15min,AgWx,beryljct,423,25MAY2019:11:15:00,65.1,13.85,61.2,62.2,61.7,62.3,60.8,42,47,38,0.792,38.3,41.1,35.5,17.16,13.9,193,12,18.2,0.00604,0.00758,47.7,49.4,11,1017,.,.,15.64,0.00,0.00
15min,AgWx,beryljct,423,25MAY2019:11:30:00,65.1,13.89,62.0,61.8,61.5,62.5,60.7,40,43,38,0.794,37.3,39.1,35.8,14.47,14.1,191,10,20.5,0.00560,0.00716,48.0,49.4,11,901,.,.,15.63,0.00,0.00
15min,AgWx,beryljct,423,25MAY2019:11:45:00,65.3,13.78,62.6,62.1,62.1,63.1,61.5,41,48,38,0.792,38.4,42.6,35.9,12.5,12.8,190,15,18.8,0.00613,0.00764,48.2,49.4,11,1022,.,.,15.63,0.00,0.00
15min,AgWx,beryljct,423,25MAY2019:12:00:00,65.6,13.86,60.4,60.4,62.1,62.9,60.4,43,47,39,0.792,39.1,42.3,36.7,9.84,11.8,198,17,18.9,0.00562,0.00701,48.5,49.4,11,910,.,.,15.63,0.00,0.00
15min,AgWx,beryljct,423,25MAY2019:12:15:00,65.5,13.82,61.6,62.0,61.8,62.7,60.4,43,46,39,0.803,38.8,40.8,36.6,11.14,11.9,183,12,19.7,0.00526,0.00663,48.9,49.4,11,822,.,.,15.63,0.00,0.00
15min,AgWx,beryljct,423,25MAY2019:12:30:00,65.8,13.75,61.3,62.3,62.7,63.6,61.9,42,44,37,0.812,39.0,40.6,36.8,10.33,12.8,179,16,19.0,0.00566,0.00715,49.2,49.4,11,900,.,.,15.62,0.00,0.00
15min,AgWx,beryljct,423,25MAY2019:12:45:00,65.7,13.83,62.7,62.9,61.9,63.3,60.8,42,46,38,0.743,38.6,40.8,36.9,15.96,12.0,173,17,20.7,0.00531,0.00670,49.5,49.5,11,853,.,.,15.63,0.00,0.00
15min,AgWx,beryljct,423,25MAY2019:13:00:00,66.1,13.77,62.5,62.7,63.0,63.7,62.6,39,44,35,0.804,37.8,40.9,35.4,13.26,12.9,179,13,18.6,0.00544,0.00698,49.8,49.5,11,831,.,.,15.63,0.00,0.00
15min,AgWx,beryljct,423,25MAY2019:13:15:00,66.5,13.77,62.6,62.8,63.4,64.9,62.1,38,41,34,0.734,37.4,40.3,34.0,10.65,12.7,184,12,20.9,0.00591,0.00750,50.2,49.6,11,928,.,.,15.62,0.00,0.00
15min,AgWx,beryljct,423,25MAY2019:13:30:00,66.5,13.84,65.5,64.4,63.3,64.4,62.0,36,40,33,0.817,36.2,39.5,33.3,7.344,14.5,195,13,21.0,0.00588,0.00762,50.5,49.6,11,920,.,.,15.62,0.00,0.00
15min,AgWx,beryljct,423,25MAY2019:13:45:00,66.5,13.74,62.0,61.9,63.2,65.1,61.6,36,40,34,0.696,36.0,40.3,34.2,9.6,13.6,195,11,22.3,0.00503,0.00665,50.9,49.7,11,719,.,.,15.63,0.00,0.00
15min,AgWx,beryljct,423,25MAY2019:14:00:00,66.6,13.73,62.9,63.4,63.9,65.0,61.9,36,41,33,0.732,36.7,39.0,33.9,10.48,12.6,198,13,18.3,0.00557,0.00718,51.3,49.8,11,849,.,.,15.62,0.00,0.00
15min,AgWx,beryljct,423,25MAY2019:14:15:00,66.8,13.74,64.5,64.6,64.1,65.2,62.9,37,43,32,0.693,37.2,40.8,34.4,11.57,12.3,185,18,20.9,0.00604,0.00765,51.7,49.9,11,943,.,.,15.62,0.00,0.00
15min,AgWx,beryljct,423,25MAY2019:14:30:00,67.4,13.7,65.1,66.0,65.0,66.0,64.3,36,38,32,0.778,37.1,39.2,34.1,15.5,12.9,195,15,17.1,0.00624,0.00794,52.2,50.0,11,958,.,.,15.62,0.00,0.00
15min,AgWx,beryljct,423,25MAY2019:14:45:00,67.9,13.73,64.5,64.6,64.9,65.8,64.0,34,38,31,0.667,36.0,38.8,32.8,16.92,13.3,188,12,21.1,0.00546,0.00717,52.6,50.1,11,796,.,.,15.63,0.01,0.00
15min,AgWx,beryljct,423,25MAY2019:15:00:00,68.2,13.68,65.4,64.9,65.0,65.7,64.5,33,35,31,0.656,35.3,37.3,33.5,13,15.5,185,14,21.1,0.00582,0.00774,53.0,50.3,11,844,.,.,15.62,0.00,0.00
15min,AgWx,beryljct,423,25MAY2019:15:15:00,68.0,13.71,63.6,64.2,64.1,65.0,62.5,33,36,30,0.613,34.1,36.2,32.1,15.39,11.7,178,15,19.9,0.00426,0.00579,53.3,50.4,11,549,.,.,15.63,0.00,0.00
15min,AgWx,beryljct,423,25MAY2019:15:30:00,67.1,13.73,64.5,64.2,62.8,64.2,62.0,32,35,28,0.702,32.4,35.5,29.7,13.75,11.8,187,17,19.3,0.00343,0.00491,53.7,50.5,11,369,.,.,15.63,0.00,0.00
15min,AgWx,beryljct,423,25MAY2019:15:45:00,67.1,13.76,61.3,62.6,64.4,65.4,62.6,30,34,27,0.617,32.6,35.4,30.2,9.54,13.8,188,16,19.9,0.00426,0.00602,54.0,50.6,11,521,.,.,15.62,0.00,0.00
15min,AgWx,beryljct,423,25MAY2019:16:00:00,66.3,13.77,62.9,63.2,62.9,64.4,61.8,30,33,27,0.555,30.8,32.7,29.3,7.914,13.4,188,10,18.7,0.00330,0.00494,54.3,50.8,11,304,.,.,15.63,0.00,0.00
15min,AgWx,beryljct,423,25MAY2019:16:15:00,65.9,13.48,62.4,62.7,63.1,64.4,62.3,30,34,28,0.535,31.4,33.6,28.7,13.11,12.3,187,12,17.8,0.00321,0.00475,54.6,50.9,11,310,.,.,15.63,0.00,0.00
15min,AgWx,beryljct,423,25MAY2019:16:30:00,66.2,13.73,63.9,64.7,64.4,65.3,62.2,28,31,26,0.582,30.5,33.5,27.9,12.91,13.1,183,13,17.7,0.00448,0.00625,54.8,51.1,11,580,.,.,15.62,0.00,0.00
15min,AgWx,beryljct,423,25MAY2019:16:45:00,66.4,13.37,61.9,63.0,63.8,65.1,62.7,28,30,27,0.586,30.4,32.4,28.9,16.16,12.4,190,14,19.4,0.00320,0.00481,54.9,51.2,11,336,.,.,15.63,0.00,0.00
15min,AgWx,beryljct,423,25MAY2019:17:00:00,65.7,13.79,63.0,62.9,62.6,63.6,61.5,31,33,29,0.583,31.6,34.2,30.1,12.08,12.1,198,8.7,19.5,0.00278,0.00427,55.1,51.4,11,282,.,.,15.63,0.00,0.00
15min,AgWx,beryljct,423,25MAY2019:17:15:00,64.9,13.68,63.7,63.7,62.5,63.7,61.5,30,33,27,0.623,30.7,33.1,28.6,9.19,12.1,188,10,17.7,0.00260,0.00409,55.2,51.5,11,244,.,.,15.63,0.00,0.00
15min,AgWx,beryljct,423,25MAY2019:17:30:00,65.5,13.75,64.2,64.1,64.1,64.9,63.4,30,32,28,0.584,31.7,33.4,30.0,9.6,11.5,188,14,16.3,0.00357,0.00511,55.2,51.6,11,442,.,.,15.63,0.00,0.00
15min,AgWx,beryljct,423,25MAY2019:17:45:00,66.1,13.57,63.9,63.6,64.0,64.3,63.4,29,30,27,0.579,30.7,32.2,29.3,12.08,12.3,191,9.7,16.4,0.00327,0.00488,55.3,51.8,11,363,.,.,15.63,0.00,0.00
15min,AgWx,beryljct,423,25MAY2019:18:00:00,66.0,13.28,63.6,63.3,63.3,63.7,63.0,30,32,28,0.554,31.0,32.7,29.4,10.65,11.2,195,9.2,15.5,0.00288,0.00434,55.3,51.9,11,318,.,.,15.63,0.00,0.00
15min,AgWx,beryljct,423,25MAY2019:18:15:00,65.8,13.21,62.6,63.0,63.3,63.7,62.7,29,32,26,0.560,30.3,32.5,28.5,10.06,9.4,191,12,15.4,0.00245,0.00374,55.3,52.0,11,270,.,.,15.63,0.00,0.00
15min,AgWx,beryljct,423,25MAY2019:18:30:00,65.4,13.18,60.5,61.1,62.3,63.4,61.1,31,36,27,0.615,31.6,34.6,29.2,6.16,7.8,205,18,12.6,0.00190,0.00295,55.3,52.1,11,219,.,.,15.63,0.00,0.00
15min,AgWx,beryljct,423,25MAY2019:18:45:00,64.5,13.16,59.9,60.8,61.1,61.8,60.4,32,37,29,0.620,31.3,33.8,29.5,4.253,7.2,208,12,12.0,0.00149,0.00243,55.3,52.2,11,168,.,.,15.63,0.00,0.00
15min,AgWx,beryljct,423,25MAY2019:19:00:00,63.6,13.13,59.6,58.4,60.0,61.0,58.4,35,39,31,0.643,32.1,33.6,30.3,6.138,6.6,213,8.5,10.1,0.00075,0.00098,55.3,52.3,11,130,.,.,15.63,0.01,0.00
15min,AgWx,beryljct,423,25MAY2019:19:15:00,62.1,13.14,55.6,56.6,57.9,58.9,56.6,38,40,36,0.624,32.5,32.9,31.6,4.45,5.0,213,6.7,6.8,0.00051,0.00070,55.2,52.3,11,88,.,.,15.63,0.00,0.00
15min,AgWx,beryljct,423,25MAY2019:19:30:00,60.1,13.1,54.2,53.8,55.3,56.8,53.6,42,45,38,0.622,32.8,33.8,31.5,3.902,4.4,221,7.4,5.8,0.00032,0.00046,55.2,52.4,11,43,.,.,15.63,0.00,0.00
15min,AgWx,beryljct,423,25MAY2019:19:45:00,57.6,13.08,53.1,51.8,52.7,53.9,51.8,46,48,44,0.607,32.3,33.6,31.5,4.757,4.5,225,5.2,5.6,0.00021,0.00031,55.1,52.5,11,8,.,.,15.64,0.01,0.00
15min,AgWx,beryljct,423,25MAY2019:20:00:00,55.2,13.06,51.9,51.8,51.8,52.4,50.9,46,50,44,0.593,31.7,33.1,30.9,4.275,4.0,220,4.3,5.3,0.00016,0.00025,55.1,52.6,11,2,.,.,15.64,0.00,0.00
15min,AgWx,beryljct,423,25MAY2019:20:15:00,53.2,13.06,51.3,52.5,51.5,52.6,50.2,46,49,42,0.577,31.2,32.2,30.2,3.551,4.1,227,5.7,5.2,0.00016,0.00025,55.0,52.6,11,0,.,.,15.64,0.00,0.00
15min,AgWx,beryljct,423,25MAY2019:20:30:00,51.5,13.04,50.7,49.8,49.8,52.2,48.6,51,54,43,0.587,32.1,33.0,30.7,4.297,3.5,228,6.3,4.5,0.00009,0.00015,54.9,52.7,11,0,.,.,15.65,0.01,0.00
15min,AgWx,beryljct,423,25MAY2019:20:45:00,50.2,13.04,45.1,47.0,50.0,51.9,47.0,49,59,42,0.648,31.3,33.5,29.5,4.867,3.3,162,27,5.2,0.00008,0.00014,54.8,52.7,11,0,.,.,15.65,0.00,0.00
15min,AgWx,beryljct,423,25MAY2019:21:00:00,48.7,13.01,44.7,45.5,46.2,47.6,44.8,61,66,56,0.652,33.5,34.2,32.7,3.705,3.9,153,7.0,5.1,0.00005,0.00009,54.7,52.8,11,0,.,.,15.65,0.00,0.00
15min,AgWx,beryljct,423,25MAY2019:21:15:00,47.0,13.01,41.0,41.3,43.2,45.5,41.3,70,76,63,0.669,34.2,34.7,33.7,3.793,3.3,157,4.7,4.8,-0.00002,-0.00001,54.6,52.8,11,0,.,.,15.65,0.00,0.00
15min,AgWx,beryljct,423,25MAY2019:21:30:00,45.5,13,45.6,44.2,41.9,44.2,40.1,73,78,63,0.630,33.7,34.7,32.3,4.713,3.6,172,12,4.7,-0.00002,-0.00001,54.4,52.8,11,0,.,.,15.65,0.00,0.00
15min,AgWx,beryljct,423,25MAY2019:21:45:00,44.4,13,42.1,42.3,42.4,46.2,39.6,68,77,57,0.626,32.6,33.3,31.9,3.354,3.6,199,10,5.0,0.00000,0.00002,54.2,52.9,11,0,.,.,15.65,0.00,0.00
15min,AgWx,beryljct,423,25MAY2019:22:00:00,43.7,12.99,42.5,42.6,42.4,43.4,41.5,69,72,66,0.643,32.9,33.4,32.6,1.973,2.7,194,3.3,3.5,-0.00005,-0.00004,54.0,52.9,11,0,.,.,15.66,0.01,0.00
15min,AgWx,beryljct,423,25MAY2019:22:15:00,43.0,12.98,41.0,42.2,42.0,42.7,40.9,69,72,66,0.616,32.5,33.1,32.0,2.674,2.4,199,7.3,3.4,-0.00007,-0.00007,53.9,52.9,11,0,.,.,15.66,0.00,0.00
15min,AgWx,beryljct,423,25MAY2019:22:30:00,42.2,12.97,43.3,41.3,39.9,42.0,39.0,74,77,68,0.617,32.5,32.9,31.9,1.907,2.4,205,5.7,3.2,-0.00008,-0.00009,53.7,52.9,11,0,.,.,15.66,0.00,0.00
15min,AgWx,beryljct,423,25MAY2019:22:45:00,41.5,12.95,43.1,43.0,41.0,43.2,39.1,70,76,63,0.598,32.1,32.7,31.5,1.25,1.9,186,10,2.9,-0.00010,-0.00012,53.5,52.9,11,0,.,.,15.66,0.00,0.00
15min,AgWx,beryljct,423,25MAY2019:23:00:00,40.9,12.95,36.9,37.3,39.6,43.0,37.2,73,79,63,0.598,31.6,32.2,30.8,2.828,2.3,197,8.1,3.2,-0.00008,-0.00009,53.3,52.9,11,0,.,.,15.67,0.01,0.00
15min,AgWx,beryljct,423,25MAY2019:23:15:00,40.2,12.94,42.2,39.0,38.1,39.6,36.9,77,81,73,0.610,31.6,32.0,31.3,1.841,2.2,211,8.4,3.0,-0.00010,-0.00011,53.1,52.9,11,0,.,.,15.67,0.00,0.00
15min,AgWx,beryljct,423,25MAY2019:23:30:00,39.6,12.93,38.6,39.6,38.8,40.0,37.5,75,79,72,0.608,31.7,32.2,31.3,2.543,2.4,199,6.5,2.9,-0.00008,-0.00010,52.9,52.9,11,0,.,.,15.66,0.00,0.00
15min,AgWx,bigpiney,439,25MAY2019:00:00:00,41.0,12.72,36.9,36.9,37.1,37.8,36.7,86,87,83,0.636,33.2,33.7,32.8,1.535,1.5,347,25,3.3,-0.00018,-0.00024,44.6,40.6,54,0,0,0.0,2.57,0.00,0.00
15min,AgWx,bigpiney,439,25MAY2019:00:15:00,40.8,12.71,37.0,36.7,36.8,36.9,36.7,88,89,86,0.659,33.5,33.9,33.1,0.57,0.3,325,10,1.4,-0.00025,-0.00039,44.5,40.7,54,0,0,0.0,2.57,0.00,0.00
15min,AgWx,bigpiney,439,25MAY2019:00:30:00,40.6,12.7,36.7,36.5,36.7,36.8,36.5,89,90,89,0.655,33.8,34.1,33.7,1.315,1.3,36,14,2.2,-0.00019,-0.00027,44.5,40.7,54,0,0,0.0,2.57,0.00,0.00
15min,AgWx,bigpiney,439,25MAY2019:00:45:00,40.3,12.7,36.6,36.2,36.2,36.6,36.1,90,91,90,0.655,33.7,33.8,33.6,0,1.3,343,10,2.5,-0.00019,-0.00026,44.4,40.7,54,0,0,0.0,2.57,0.00,0.00
15min,AgWx,bigpiney,439,25MAY2019:01:00:00,39.9,12.69,36.5,36.1,36.0,36.5,35.5,91,92,90,0.658,33.6,34.1,33.1,1.556,0.9,330,10,2.0,-0.00021,-0.00030,44.3,40.7,54,0,0,0.0,2.57,0.00,0.00
15min,AgWx,bigpiney,439,25MAY2019:01:15:00,39.3,12.68,36.0,35.7,35.9,36.3,35.4,91,92,90,0.650,33.6,33.9,33.1,2.565,2.3,329,30,2.9,-0.00015,-0.00020,44.2,40.7,54,0,1,0.0,2.57,0.00,0.00
15min,AgWx,bigpiney,439,25MAY2019:01:30:00,38.7,12.67,35.2,34.7,34.5,35.7,33.9,92,93,91,0.630,32.3,33.6,31.6,3.442,2.9,294,22,4.3,-0.00013,-0.00016,44.2,40.7,54,0,1,0.0,2.57,0.00,0.00
15min,AgWx,bigpiney,439,25MAY2019:01:45:00,38.0,12.66,35.9,35.5,35.0,35.5,34.3,92,93,90,0.638,32.8,33.3,31.7,2.872,3.2,289,12,4.1,-0.00013,-0.00015,44.1,40.7,54,0,1,0.0,2.57,0.00,0.00
15min,AgWx,bigpiney,439,25MAY2019:02:00:00,37.4,12.66,32.1,32.2,34.2,35.6,32.2,89,91,89,0.555,31.5,33.1,29.6,3.244,2.3,320,14,4.5,-0.00014,-0.00018,44.0,40.8,54,0,1,0.0,2.57,0.00,0.00
15min,AgWx,bigpiney,439,25MAY2019:02:15:00,36.7,12.65,31.8,31.7,31.8,32.2,31.3,91,93,90,0.554,29.6,30.1,29.1,3.486,3.4,309,26,4.5,-0.00011,-0.00013,43.9,40.7,54,0,1,0.0,2.57,0.00,0.00
15min,AgWx,bigpiney,439,25MAY2019:02:30:00,36.0,12.64,31.6,31.3,31.4,31.8,31.0,92,92,91,0.545,29.3,29.8,28.8,2.258,3.1,313,14,4.3,-0.00012,-0.00014,43.8,40.7,54,0,1,0.0,2.57,0.00,0.00
15min,AgWx,bigpiney,439,25MAY2019:02:45:00,35.4,12.64,30.8,30.6,31.0,31.4,30.6,92,92,91,0.528,28.9,29.3,28.4,1.206,1.7,307,27,2.7,-0.00016,-0.00021,43.8,40.7,54,0,1,0.0,2.57,0.00,0.00
15min,AgWx,bigpiney,439,25MAY2019:03:00:00,34.8,12.63,30.7,30.6,30.8,31.3,30.5,92,92,91,0.527,28.7,29.2,28.3,0,1.6,314,30,3.0,-0.00016,-0.00021,43.7,40.8,54,0,1,0.0,2.57,0.00,0.00
15min,AgWx,bigpiney,439,25MAY2019:03:15:00,34.3,12.62,32.4,31.1,30.6,31.1,30.1,92,93,91,0.547,28.7,29.3,27.9,2.477,2.1,255,21,3.2,-0.00015,-0.00019,43.6,40.8,54,0,1,0.0,2.57,0.00,0.00
15min,AgWx,bigpiney,439,25MAY2019:03:30:00,34.0,12.62,29.5,28.7,30.2,31.3,28.3,92,93,90,0.494,28.0,29.6,25.9,6.818,3.0,208,37,7.2,-0.00012,-0.00014,43.5,40.7,54,0,1,0.0,2.57,0.00,0.00
15min,AgWx,bigpiney,439,25MAY2019:03:45:00,33.7,12.61,30.6,30.0,29.4,30.1,28.8,93,93,92,0.521,27.5,28.2,26.9,2.806,4.3,214,7.5,5.9,-0.00009,-0.00010,43.4,40.8,54,0,1,0.0,2.57,0.00,0.00
15min,AgWx,bigpiney,439,25MAY2019:04:00:00,33.9,12.6,31.1,30.7,30.5,30.8,30.0,92,93,92,0.535,28.6,28.9,28.1,3.157,3.0,221,17,4.8,-0.00012,-0.00015,43.3,40.7,54,0,1,0.0,2.57,0.00,0.00
15min,AgWx,bigpiney,439,25MAY2019:04:15:00,34.1,12.59,31.5,31.3,31.1,31.4,30.7,93,93,92,0.548,29.2,29.5,28.7,1.052,2.1,230,11,3.0,-0.00015,-0.00019,43.3,40.8,54,0,1,0.0,2.57,0.00,0.00
15min,AgWx,bigpiney,439,25MAY2019:04:30:00,34.0,12.59,29.7,29.5,30.4,31.4,29.5,92,92,91,0.507,28.4,29.4,27.4,3.486,2.5,207,16,4.7,-0.00013,-0.00016,43.2,40.7,54,0,1,0.0,2.57,0.00,0.00
15min,AgWx,bigpiney,439,25MAY2019:04:45:00,33.7,12.58,30.3,29.9,29.7,30.3,29.2,93,94,92,0.524,27.9,28.5,27.1,0.066,1.4,297,26,4.5,-0.00016,-0.00022,43.1,40.7,54,1,1,0.0,2.57,0.00,0.00
15min,AgWx,bigpiney,439,25MAY2019:05:00:00,33.3,12.57,31.6,30.8,30.2,30.8,29.8,93,94,93,0.541,28.5,29.0,28.1,2.126,1.3,317,15,2.2,-0.00017,-0.00023,43.0,40.7,54,5,1,0.0,2.57,0.00,0.00
15min,AgWx,bigpiney,439,25MAY2019:05:15:00,33.3,12.58,31.3,30.9,30.8,31.1,30.6,93,93,92,0.541,28.9,29.3,28.6,1.381,1.5,347,11,2.3,-0.00004,-0.00003,42.9,40.7,54,9,1,0.0,2.57,0.00,0.00
15min,AgWx,bigpiney,439,25MAY2019:05:30:00,33.6,12.57,32.1,31.5,31.1,31.5,30.9,92,93,92,0.555,29.1,29.6,28.9,0.263,1.3,306,30,2.3,0.00001,0.00002,42.8,40.7,54,19,1,0.0,2.57,0.00,0.00
15min,AgWx,bigpiney,439,25MAY2019:05:45:00,34.1,12.58,32.1,31.7,31.6,31.8,31.4,93,93,92,0.560,29.7,29.9,29.4,2.806,1.1,214,19,2.8,0.00009,0.00010,42.7,40.6,54,29,1,0.0,2.57,0.00,0.00
15min,AgWx,bigpiney,439,25MAY2019:06:00:00,34.6,12.59,33.1,32.7,32.0,32.7,31.5,94,94,93,0.590,30.4,31.1,29.7,0,1.5,242,24,3.9,0.00015,0.00018,42.6,40.7,54,40,1,0.0,2.57,0.00,0.00
15min,AgWx,bigpiney,439,25MAY2019:06:15:00,35.1,12.64,34.0,33.5,33.2,33.5,32.6,94,94,93,0.606,31.6,31.9,31.1,0.767,0.3,213,13,1.1,0.00022,0.00023,42.5,40.6,54,50,1,0.0,2.57,0.00,0.00
15min,AgWx,bigpiney,439,25MAY2019:06:30:00,35.6,12.68,33.7,33.5,33.7,33.9,33.5,93,93,92,0.600,31.9,32.2,31.5,1.995,1.0,113,40,2.3,0.00028,0.00031,42.4,40.6,54,65,1,0.0,2.57,0.00,0.00
15min,AgWx,bigpiney,439,25MAY2019:06:45:00,36.2,12.75,36.5,35.4,34.5,35.5,33.5,93,93,91,0.638,32.6,33.5,31.5,2.105,1.2,90,30,2.4,0.00076,0.00082,42.3,40.6,54,254,1,0.0,2.57,0.00,0.00
15min,AgWx,bigpiney,439,25MAY2019:07:00:00,37.6,12.82,37.0,37.2,36.0,37.3,35.4,89,92,87,0.667,33.1,34.3,32.4,1.907,2.3,28,18,5.2,0.00102,0.00111,42.2,40.6,54,314,1,0.0,2.57,0.00,0.00
15min,AgWx,bigpiney,439,25MAY2019:07:15:00,39.3,12.97,37.9,37.7,37.4,38.1,36.8,86,88,84,0.655,33.6,34.5,32.9,1.754,2.5,6.9,30,5.3,0.00125,0.00138,42.1,40.6,54,357,0,0.0,2.57,0.00,0.00
15min,AgWx,bigpiney,439,25MAY2019:07:30:00,41.1,13.31,38.9,39.1,38.3,39.2,37.6,84,85,83,0.676,34.0,34.9,33.2,2.214,1.5,4.6,57,3.4,0.00151,0.00164,42.1,40.6,54,397,0,0.0,2.57,0.00,0.00
15min,AgWx,bigpiney,439,25MAY2019:07:45:00,42.9,13.65,40.3,39.9,39.3,39.9,38.8,83,84,82,0.690,34.5,35.1,34.0,1.622,2.4,9.6,22,4.5,0.00176,0.00193,42.0,40.5,54,449,0,0.0,2.57,0.00,0.00
15min,AgWx,bigpiney,439,25MAY2019:08:00:00,44.4,13.6,39.9,40.5,40.4,41.3,39.7,81,83,79,0.678,35.0,36.2,34.1,3.31,1.9,84,29,4.3,0.00167,0.00182,41.9,40.5,54,391,0,0.0,2.57,0.00,0.00
15min,AgWx,bigpiney,439,25MAY2019:08:15:00,45.8,14.62,40.7,41.7,40.9,41.7,40.1,80,83,79,0.729,35.3,36.6,34.2,3.223,2.1,107,35,4.1,0.00210,0.00229,41.8,40.5,54,495,0,0.0,2.57,0.00,0.00
15min,AgWx,bigpiney,439,25MAY2019:08:30:00,47.1,13.94,43.3,42.5,41.6,42.5,40.9,78,81,75,0.727,35.4,36.5,34.2,0.723,2.5,101,25,5.4,0.00237,0.00260,41.8,40.4,54,548,0,0.0,2.57,0.00,0.00